SCP
-0 -0 -0 -0 -0 -0 -0 -0 -0 -0 -0 -0 -0 -0 -0 -0 -0 -0 -0 -0 0 0 0 0 0 0 0 -0 0 0 0 0 -0
-0 0 -0 -0 -0 -0 -0 -0 -0 -0 -0 -0 -0 -0 -0 -0 0 0 0 0 -0 0 0 0 0 0 0 -0 0 -0 -0 -0 -0
-0 -0 0 0 -0 -0 -0 -0 -0 -0 -0 -0 -0 -0 -0 -0 0 0 0 0 0 0 0 0 0 0 0 0 0 0 0 0 0
-0 -0 -0 0 0 0 0 -0 -0 -0 -0 -0 -0 -0 0 0 0 -0 -0 0 0 -0 -0 0 0 0 0 0 -0 0 0 0 0
-0 0 0 0 0 0 0 0 -0 -0 -0 -0 -0 -0 -0 -0 -0 -0 -0 0 0 0 0 0 0 0 0 0 0 0 0 0 0
0 0 0 0 0 0 0 -0 -0 -0 -0 -0 0 0 0 0 0 0 0 0 0 0 -0 0 0 0 0 0 0 0 0 0 0
-0 0 0 0 0 0 -0 -0 -0 -0 -0 0 0 0 0 0 0 0 0 0 0 0 0 -0 -0 -0 0 0 0 0 0 0 0
-0 -0 0 0 0 0 -0 0 -0 -0 0 0 0 0 0 0 0 0 0 0 0 0 0 0 0 0 0 0 0 0 0 0 0
0 -0 -0 -0 0 0 0 0 0 -0 0 0 0 0 0 0 0 0 0 0 0 0 0 0 0 0 0 0 0 0 0 0 0
0 0 -0 0 0 0 0 0 0 0 0 0 0 0 0 0 0 0 0 0 0 0 0 0 0 0 0 0 0 0 0 0 0
0 0 0 0 0 1 0 0 0 0 0 0 0 0 0 0 0 0 0 0 0 0 0 0 0 0 0 0 0 0 0 0 0
0 0 1 0 0 0 0 0 0 0 0 0 0 0 0 0 0 0 0 0 0 0 0 0 0 0 0 0 0 0 0 0 0
0 0 0 1 0 0 0 0 0 0 0 0 0 0 0 0 0 0 0 0 0 0 0 0 0 0 0 0 0 0 0 0 0
0 0 1 0 0 0 0 0 0 0 0 0 0 0 0 0 0 0 0 0 0 0 0 0 0 0 0 0 0 0 0 0 0
0 -0 0 -0 0 0 0 0 0 0 0 0 0 0 0 0 0 0 0 0 0 0 0 0 0 0 0 0 0 0 0 0 0
0 -0 0 -0 -0 0 0 0 0 0 0 0 0 0 0 0 0 0 0 0 0 0 0 0 0 0 0 0 0 0 0 0 0
0 0 0 -0 0 0 0 0 0 0 0 0 0 0 0 0 0 0 0 0 0 0 0 0 0 0 0 0 0 0 0 0 0
0 0 0 0 -0 0 0 0 0 0 0 0 0 0 0 0 0 0 0 0 0 0 0 0 0 0 0 0 0 0 0 0 0
0 0 0 0 0 0 0 0 0 0 0 0 0 0 0 0 0 0 0 0 0 0 0 0 0 0 0 0 0 0 0 0 0
0 0 0 -0 -0 0 0 0 0 0 0 0 0 0 0 0 0 0 0 0 0 0 0 0 0 -0 -0 0 -0 -0 -0 0 0
Wind_Speed_500mb
51 61 64 67 68 65 65 67 66 70 74 71 69 66 64 63 59 54 51 44 37 43 43 36 27 30 27 13 17 17 15 24 28
52 60 64 61 59 60 59 60 60 67 73 75 73 73 63 58 54 53 53 55 51 45 46 42 35 33 33 30 31 29 31 26 22
43 50 56 59 58 56 54 49 46 51 60 62 64 67 63 59 55 52 53 52 58 51 45 43 41 40 42 43 44 31 31 33 27
45 46 48 55 51 44 48 43 42 41 43 46 50 49 50 51 47 42 40 44 44 46 53 48 45 47 46 43 38 35 35 40 39
23 29 40 37 38 35 38 38 35 33 35 39 39 32 31 27 26 31 34 35 36 41 47 47 43 42 47 45 37 40 41 36 38
10 14 28 30 35 37 40 43 44 48 43 34 39 38 33 32 33 36 36 43 48 40 31 33 36 40 40 39 40 38 37 40 36
14 26 30 36 37 36 33 20 23 29 26 25 23 22 27 31 32 35 31 27 23 19 24 31 34 38 42 41 41 39 38 40 33
20 15 35 35 34 30 26 24 26 27 25 23 20 18 16 16 16 17 21 24 27 28 30 36 43 38 29 31 32 37 37 32 28
19 26 36 36 32 24 20 21 24 25 25 24 24 17 9 9 9 15 17 20 24 27 28 24 26 31 25 25 26 28 31 35 31
30 33 37 32 25 25 27 27 27 28 28 24 18 17 14 11 10 13 12 15 18 18 21 26 31 27 24 23 22 24 21 26 24
41 38 39 33 34 36 35 32 30 32 29 24 20 14 8 10 9 12 14 16 18 18 20 20 21 21 20 20 19 18 17 20 22
35 36 40 40 41 39 36 34 33 27 24 18 10 3 6 7 7 10 12 16 16 15 15 14 15 15 15 17 18 19 19 19 19
48 40 43 46 44 42 38 36 26 19 16 9 6 8 9 6 6 6 4 2 4 8 10 9 8 6 6 9 10 11 11 10 9
50 53 53 54 53 45 36 28 22 16 12 11 10 8 6 4 7 7 9 12 15 15 12 9 7 7 8 10 13 13 11 11 10
66 66 62 62 56 42 32 30 20 14 16 15 11 8 8 11 11 13 16 13 14 14 14 9 12 16 19 22 23 24 23 21 18
75 70 67 69 62 46 28 25 22 21 20 12 7 10 12 14 13 13 12 10 13 14 15 16 20 21 22 23 23 21 21 22 21
78 78 73 79 73 48 48 39 32 24 18 8 12 15 18 17 15 16 16 13 11 13 15 16 17 18 19 19 19 20 19 17 17
76 74 76 81 76 61 58 48 36 28 17 11 15 18 19 19 17 16 16 19 16 16 14 12 13 15 21 20 21 23 25 23 19
75 76 81 83 68 65 57 46 37 26 18 16 17 21 18 14 14 18 22 23 18 19 14 14 13 20 23 24 28 30 30 30 30
79 85 92 87 73 66 54 46 36 26 22 23 23 17 15 13 15 21 30 25 21 25 25 15 16 24 28 29 30 32 33 34 32
Wind_Direction_500mb
216 216 215 216 219 220 225 227 228 226 227 228 233 237 241 247 255 262 261 264 270 266 271 278 283 287 296 297 292 301 281 255 258
206 215 215 215 218 222 222 224 227 232 232 231 235 237 242 245 251 259 262 263 268 273 271 274 278 282 291 295 306 310 301 292 273
200 211 219 221 220 219 219 221 221 227 232 234 236 239 242 246 247 251 260 265 263 264 271 279 285 286 285 285 289 294 294 291 290
191 197 213 222 223 224 229 224 224 227 228 227 227 230 235 239 242 249 258 262 256 268 271 274 281 288 289 283 278 279 282 286 286
191 196 199 203 201 208 215 213 205 225 241 234 224 221 226 237 237 236 251 267 284 284 276 279 279 282 281 272 277 278 275 282 279
185 192 198 187 185 186 197 206 232 243 238 225 215 215 224 230 240 246 257 272 281 276 272 272 278 280 280 276 275 276 278 280 287
158 168 179 173 182 197 209 182 167 176 171 176 194 212 232 249 258 262 264 266 268 270 271 270 269 274 276 274 266 264 278 286 277
164 198 165 162 163 162 141 130 121 122 128 137 154 179 191 201 215 240 257 266 269 266 265 268 272 276 280 285 276 269 275 278 284
160 160 154 152 147 121 133 139 142 139 139 141 142 143 164 192 230 255 263 261 264 265 264 267 276 282 276 273 263 264 268 275 285
168 166 157 145 124 133 132 133 139 140 142 143 150 154 175 183 205 244 252 254 262 264 274 277 282 294 299 299 294 290 279 278 279
171 169 156 147 146 141 138 138 145 155 155 151 160 154 181 204 202 227 238 248 255 263 272 278 282 285 289 293 296 297 295 287 284
182 176 165 159 154 149 147 150 163 162 154 158 162 165 217 221 231 240 250 251 255 265 278 285 285 285 287 293 299 301 298 288 284
186 184 180 170 163 157 160 161 165 176 166 162 175 192 202 215 219 215 215 184 91 83 71 62 57 36 8 3 2 3 0 358 344
184 184 184 180 173 169 167 165 171 186 178 182 192 201 208 179 154 110 98 102 97 80 56 25 352 336 337 342 351 353 349 340 326
181 179 185 187 177 176 167 171 183 194 199 189 190 192 172 154 137 108 106 99 84 62 51 45 65 65 66 61 52 41 37 38 38
185 184 187 187 182 170 186 193 191 202 208 185 172 180 166 150 133 117 119 108 83 74 85 82 76 71 69 63 53 42 38 36 36
186 186 186 186 189 190 194 198 192 199 206 189 185 175 158 150 149 144 146 142 109 95 98 90 78 63 46 31 13 13 28 35 33
190 188 190 191 190 192 187 188 188 191 198 191 172 160 154 155 157 162 159 162 137 126 108 82 53 47 16 1 5 19 20 21 23
186 185 187 189 189 184 181 179 182 188 192 174 166 162 162 169 180 183 172 166 149 143 124 100 69 30 28 36 40 36 31 27 23
190 184 184 185 182 179 177 180 184 184 173 166 163 165 160 158 157 159 161 150 147 145 133 113 55 43 50 51 45 39 35 32 25
Wind_Speed_850mb
51 61 64 67 68 65 65 67 66 70 74 71 69 66 64 63 59 54 51 44 37 43 43 36 27 30 27 13 17 17 15 24 28
52 60 64 61 59 60 59 60 60 67 73 75 73 73 63 58 54 53 53 55 51 45 46 42 35 33 33 30 31 29 31 26 22
43 50 56 59 58 56 54 49 46 51 60 62 64 67 63 59 55 52 53 52 58 51 45 43 41 40 42 43 44 31 31 33 27
45 46 48 55 51 44 48 43 42 41 43 46 50 49 50 51 47 42 40 44 44 46 53 48 45 47 46 43 38 35 35 40 39
23 29 40 37 38 35 38 38 35 33 35 39 39 32 31 27 26 31 34 35 36 41 47 47 43 42 47 45 37 40 41 36 38
10 14 28 30 35 37 40 43 44 48 43 34 39 38 33 32 33 36 36 43 48 40 31 33 36 40 40 39 40 38 37 40 36
14 26 30 36 37 36 33 20 23 29 26 25 23 22 27 31 32 35 31 27 23 19 24 31 34 38 42 41 41 39 38 40 33
20 15 35 35 34 30 26 24 26 27 25 23 20 18 16 16 16 17 21 24 27 28 30 36 43 38 29 31 32 37 37 32 28
19 26 36 36 32 24 20 21 24 25 25 24 24 17 9 9 9 15 17 20 24 27 28 24 26 31 25 25 26 28 31 35 31
30 33 37 32 25 25 27 27 27 28 28 24 18 17 14 11 10 13 12 15 18 18 21 26 31 27 24 23 22 24 21 26 24
41 38 39 33 34 36 35 32 30 32 29 24 20 14 8 10 9 12 14 16 18 18 20 20 21 21 20 20 19 18 17 20 22
35 36 40 40 41 39 36 34 33 27 24 18 10 3 6 7 7 10 12 16 16 15 15 14 15 15 15 17 18 19 19 19 19
48 40 43 46 44 42 38 36 26 19 16 9 6 8 9 6 6 6 4 2 4 8 10 9 8 6 6 9 10 11 11 10 9
50 53 53 54 53 45 36 28 22 16 12 11 10 8 6 4 7 7 9 12 15 15 12 9 7 7 8 10 13 13 11 11 10
66 66 62 62 56 42 32 30 20 14 16 15 11 8 8 11 11 13 16 13 14 14 14 9 12 16 19 22 23 24 23 21 18
75 70 67 69 62 46 28 25 22 21 20 12 7 10 12 14 13 13 12 10 13 14 15 16 20 21 22 23 23 21 21 22 21
78 78 73 79 73 48 48 39 32 24 18 8 12 15 18 17 15 16 16 13 11 13 15 16 17 18 19 19 19 20 19 17 17
76 74 76 81 76 61 58 48 36 28 17 11 15 18 19 19 17 16 16 19 16 16 14 12 13 15 21 20 21 23 25 23 19
75 76 81 83 68 65 57 46 37 26 18 16 17 21 18 14 14 18 22 23 18 19 14 14 13 20 23 24 28 30 30 30 30
79 85 92 87 73 66 54 46 36 26 22 23 23 17 15 13 15 21 30 25 21 25 25 15 16 24 28 29 30 32 33 34 32
Wind_Direction_850mb
216 216 215 216 219 220 225 227 228 226 227 228 233 237 241 247 255 262 261 264 270 266 271 278 283 287 296 297 292 301 281 255 258
206 215 215 215 218 222 222 224 227 232 232 231 235 237 242 245 251 259 262 263 268 273 271 274 278 282 291 295 306 310 301 292 273
200 211 219 221 220 219 219 221 221 227 232 234 236 239 242 246 247 251 260 265 263 264 271 279 285 286 285 285 289 294 294 291 290
191 197 213 222 223 224 229 224 224 227 228 227 227 230 235 239 242 249 258 262 256 268 271 274 281 288 289 283 278 279 282 286 286
191 196 199 203 201 208 215 213 205 225 241 234 224 221 226 237 237 236 251 267 284 284 276 279 279 282 281 272 277 278 275 282 279
185 192 198 187 185 186 197 206 232 243 238 225 215 215 224 230 240 246 257 272 281 276 272 272 278 280 280 276 275 276 278 280 287
158 168 179 173 182 197 209 182 167 176 171 176 194 212 232 249 258 262 264 266 268 270 271 270 269 274 276 274 266 264 278 286 277
164 198 165 162 163 162 141 130 121 122 128 137 154 179 191 201 215 240 257 266 269 266 265 268 272 276 280 285 276 269 275 278 284
160 160 154 152 147 121 133 139 142 139 139 141 142 143 164 192 230 255 263 261 264 265 264 267 276 282 276 273 263 264 268 275 285
168 166 157 145 124 133 132 133 139 140 142 143 150 154 175 183 205 244 252 254 262 264 274 277 282 294 299 299 294 290 279 278 279
171 169 156 147 146 141 138 138 145 155 155 151 160 154 181 204 202 227 238 248 255 263 272 278 282 285 289 293 296 297 295 287 284
182 176 165 159 154 149 147 150 163 162 154 158 162 165 217 221 231 240 250 251 255 265 278 285 285 285 287 293 299 301 298 288 284
186 184 180 170 163 157 160 161 165 176 166 162 175 192 202 215 219 215 215 184 91 83 71 62 57 36 8 3 2 3 0 358 344
184 184 184 180 173 169 167 165 171 186 178 182 192 201 208 179 154 110 98 102 97 80 56 25 352 336 337 342 351 353 349 340 326
181 179 185 187 177 176 167 171 183 194 199 189 190 192 172 154 137 108 106 99 84 62 51 45 65 65 66 61 52 41 37 38 38
185 184 187 187 182 170 186 193 191 202 208 185 172 180 166 150 133 117 119 108 83 74 85 82 76 71 69 63 53 42 38 36 36
186 186 186 186 189 190 194 198 192 199 206 189 185 175 158 150 149 144 146 142 109 95 98 90 78 63 46 31 13 13 28 35 33
190 188 190 191 190 192 187 188 188 191 198 191 172 160 154 155 157 162 159 162 137 126 108 82 53 47 16 1 5 19 20 21 23
186 185 187 189 189 184 181 179 182 188 192 174 166 162 162 169 180 183 172 166 149 143 124 100 69 30 28 36 40 36 31 27 23
190 184 184 185 182 179 177 180 184 184 173 166 163 165 160 158 157 159 161 150 147 145 133 113 55 43 50 51 45 39 35 32 25